EDT,Max TemperatureF,Mean TemperatureF,Min TemperatureF,Max Dew PointF,MeanDew PointF,Min DewpointF,Max Humidity, Mean Humidity, Min Humidity, Max Sea Level PressureIn, Mean Sea Level PressureIn, Min Sea Level PressureIn, Max VisibilityMiles, Mean VisibilityMiles, Min VisibilityMiles, Max Wind SpeedMPH, Mean Wind SpeedMPH, Max Gust SpeedMPH,PrecipitationIn, CloudCover, Events, WindDirDegrees
2014-3-1,36,28,19,32,22,16,100,84,58,30.27,30.18,30.05,10,9,6,15,10,,0.01,8,Rain-Snow,341
2014-3-2,21,16,10,19,15,3,100,94,63,30.36,30.25,30.21,10,5,1,18,10,20,0.17,8,Snow,4
2014-3-3,14,8,1,4,-2,-6,75,64,45,30.51,30.43,30.30,10,10,10,16,11,22,0.00,2,,41
2014-3-4,24,14,5,13,7,-1,77,69,59,30.43,30.31,30.23,10,10,10,8,5,,0.00,4,,123
2014-3-5,23,16,9,21,15,6,96,83,63,30.44,30.36,30.25,10,8,2,21,11,26,0.02,5,Snow,69
2014-3-6,30,22,14,22,16,10,93,80,69,30.43,30.30,30.17,10,10,10,17,12,,0.00,1,,81
2014-3-7,50,32,13,38,28,14,100,85,61,30.13,30.03,29.95,10,10,4,10,6,,0.00,1,,163
2014-3-8,38,31,23,37,31,23,100,98,86,30.26,30.11,29.96,10,7,1,15,8,,0.00,7,Rain-Snow,328
2014-3-9,40,29,18,35,28,19,100,91,72,30.31,30.17,29.94,10,10,10,16,8,,0.00,2,,239
2014-3-10,56,46,35,47,40,35,100,88,67,29.94,29.79,29.70,10,10,10,21,15,25,0.00,2,,235
2014-3-11,57,45,33,53,41,34,100,94,76,29.72,29.67,29.62,10,8,2,16,4,,0.00,4,,152
2014-3-12,40,28,17,39,29,14,100,95,74,30.10,29.67,29.44,10,6,1,26,19,37,0.85,7,Rain-Snow,359
2014-3-13,33,22,10,28,19,10,100,87,72,30.23,30.13,30.00,10,10,10,16,7,,0.00,3,,222
2014-3-14,56,45,33,46,37,29,89,76,54,29.98,29.81,29.67,10,10,10,32,19,46,0.04,2,,235
2014-3-15,46,38,30,36,32,23,100,81,52,30.20,30.06,29.90,10,10,10,16,11,,0.00,2,,310
2014-3-16,29,24,18,24,14,7,80,63,50,30.28,30.21,30.14,10,10,10,26,18,34,0.00,4,,50
2014-3-17,38,25,13,29,19,8,100,77,57,30.11,29.96,29.84,10,10,10,16,11,,0.00,2,,86
2014-3-18,53,38,24,43,35,24,100,88,63,29.96,29.89,29.77,10,10,10,14,8,21,0.00,1,,112
2014-3-19,50,42,35,50,44,33,100,100,90,30.01,29.75,29.65,10,9,2,32,13,43,0.05,8,Rain,214
2014-3-20,49,38,29,34,32,28,100,79,56,30.10,30.04,29.99,10,10,10,22,13,31,0.00,6,,277
2014-3-21,64,48,32,42,37,32,100,75,38,30.06,29.91,29.72,10,10,8,17,9,24,0.00,3,Rain,130
2014-3-22,49,42,32,43,33,28,92,76,61,30.27,30.08,29.79,10,10,10,18,13,25,0.00,7,,318
2014-3-23,34,26,19,27,18,12,93,66,41,30.40,30.34,30.27,10,10,10,15,8,,0.00,6,Snow,358
2014-3-24,35,26,17,20,15,12,93,65,42,30.40,30.30,30.14,10,10,10,13,5,,0.00,1,,263
2014-3-25,31,26,21,28,23,13,100,84,52,30.25,30.05,29.96,10,7,1,28,11,34,0.00,6,Snow,302
2014-3-26,39,27,16,21,15,12,91,64,36,30.39,30.28,30.17,10,10,10,13,5,17,0.00,0,,218
2014-3-27,50,40,32,45,33,17,100,80,47,30.16,29.90,29.64,10,10,7,28,15,37,0.23,7,Rain-Snow-Thunderstorm,178
2014-3-28,51,42,32,51,44,32,100,98,77,30.19,29.81,29.59,10,9,3,33,23,46,0.05,7,Rain,258
2014-3-29,38,34,30,39,34,31,100,99,87,30.23,30.11,30.06,10,7,0,17,8,17,0.24,7,Rain-Snow,11
2014-3-30,53,38,24,38,31,24,100,80,44,30.28,30.22,30.14,10,10,8,8,5,,0.00,0,,285
2014-3-31,67,50,34,38,36,33,97,61,32,30.16,30.05,29.86,10,10,10,20,10,26,0.00,1,,153